Mather AFB, CA

4:15 AM PDT on September 20, 2017 (GMT -0700)
Mather

Weather History for KMHR - August, 2014

Change the Weather History Date:

Wednesday, August 20, 2014

  Actual Average Record
Temperature  
Mean Temperature 68 °F -  
Max Temperature 78 °F 87 °F 96 °F (2003)
Min Temperature 59 °F 56 °F 48 °F (2002)
Cooling Degree Days 4    
Growing Degree Days 18 (Base 50)    
Moisture  
Dew Point 57 °F    
Average Humidity 70    
Maximum Humidity 100    
Minimum Humidity 44    
Precipitation  
Precipitation 0.00 in - - ()
Sea Level Pressure  
Sea Level Pressure 29.87 in    
Wind  
Wind Speed 10 mph (SSW)    
Max Wind Speed 14 mph    
Max Gust Speed 18 mph    
Visibility 10 miles    
Events      
Averages and records for this station are not official NWS values.
T = Trace of Precipitation, MM = Missing Value Source: NWS Daily Summary

Daily Weather History Graph

Daily Weather History Graph

Search for Another Location

Airport or City:

Trip Planner

Search our weather history database for the weather conditions in past years. The results will help you decide how hot, cold, wet, or windy it might be!

Date:

Astronomy

Aug. 20, 2014 Rise Set
Actual Time 6:23 AM PDT 7:52 PM PDT
Civil Twilight 5:56 AM PDT 8:20 PM PDT
Nautical Twilight 5:22 AM PDT 8:53 PM PDT
Astronomical Twilight 4:46 AM PDT 9:29 PM PDT
Moon 2:09 AM PDT 4:40 PM PDT
Length of Visible Light 14h 24m
Length of Day
13h 28m
Waning Crescent, 20% of the Moon is Illuminated
Aug 20
Waning Crescent
Aug 25
New
Sep 2
First Quarter
Sep 8
Full
Sep 15
Last Quarter

Hourly Weather History & Observations

Time (PDT) Temp. Dew Point Humidity Pressure Visibility Wind Dir Wind Speed Gust Speed Precip Events Conditions
2:46 AM 59.0 °F 59.0 °F 100% 29.82 in 10.0 mi South 10.4 mph - N/A   Partly Cloudy
3:46 AM 60.8 °F 59.0 °F 94% 29.83 in 10.0 mi SSW 11.5 mph - N/A   Scattered Clouds
4:46 AM 60.8 °F 59.0 °F 94% 29.83 in 10.0 mi SSW 10.4 mph - N/A   Partly Cloudy
5:46 AM 59.0 °F 59.0 °F 100% 29.84 in 10.0 mi South 4.6 mph - N/A   Mostly Cloudy
6:45 AM 59.0 °F 59.0 °F 100% 29.85 in 10.0 mi SE 5.8 mph - N/A   Mostly Cloudy
7:55 AM 62.6 °F 59.0 °F 88% 29.88 in 10.0 mi SSE 9.2 mph - N/A   Mostly Cloudy
8:50 AM 64.4 °F 57.2 °F 77% 29.89 in 10.0 mi SSW 9.2 mph - N/A   Mostly Cloudy
9:50 AM 68.0 °F 57.2 °F 68% 29.90 in 10.0 mi SW 11.5 mph - N/A   Mostly Cloudy
10:55 AM 71.6 °F 57.2 °F 60% 29.91 in 10.0 mi SW 11.5 mph - N/A   Scattered Clouds
11:50 AM 73.4 °F 57.2 °F 57% 29.91 in 10.0 mi SSW 11.5 mph - N/A   Partly Cloudy
12:50 PM 75.2 °F 57.2 °F 53% 29.90 in 10.0 mi South 10.4 mph 16.1 mph N/A   Partly Cloudy
1:45 PM 77.0 °F 55.4 °F 47% 29.88 in 10.0 mi SSW 13.8 mph 18.4 mph N/A   Clear
2:49 PM 77.0 °F 55.4 °F 47% 29.88 in 10.0 mi SW 13.8 mph - N/A   Clear
3:58 PM 78.8 °F 55.4 °F 44% 29.86 in 10.0 mi SSW 9.2 mph - N/A   Clear
4:55 PM 78.8 °F 55.4 °F 44% 29.85 in 10.0 mi SW 13.8 mph - N/A   Clear
5:45 PM 77.0 °F 55.4 °F 47% 29.85 in 10.0 mi SW 9.2 mph - N/A   Clear
6:45 PM 75.2 °F 55.4 °F 50% 29.84 in 10.0 mi SW 11.5 mph - N/A   Clear
7:47 PM 71.6 °F 55.4 °F 57% 29.85 in 10.0 mi SSW 6.9 mph - N/A   Clear
8:47 PM 68.0 °F 55.4 °F 64% 29.87 in 10.0 mi SSW 5.8 mph - N/A   Clear
9:52 PM 64.4 °F 55.4 °F 73% 29.88 in 10.0 mi South 5.8 mph - N/A   Clear
10:55 PM 62.6 °F 55.4 °F 77% 29.89 in 10.0 mi South 4.6 mph - N/A   Clear
11:30 PM 60.8 °F 57.2 °F 88% 29.89 in 10.0 mi SSW 4.6 mph - N/A   Clear